Retour au catalogue

STARLINK-11449

ActifCommunicationsVLEO
NORAD 63012·PAYLOAD·🇺🇸 United States

Lancé Feb 15, 2025 depuis Cape Canaveral Space Force Station

Loading…

Prochains Passages (prochaines 24 heures)

TLE

FraisSource: CelesTrak SupGP

Époque: Sep 14, 2026, 22:54 UTC

1 63012C 25032H   26257.95465278 -.00046933  00000+0 -36457-3 0  2573
2 63012  43.0002 134.4478 0001872 265.1304   0.6408 15.70858203    11

Suivez STARLINK-11449 en temps réel avec AllMySat

Download on the App Store